Location: Austin
(30.3000°N, 97.7500°W)
Time: 23:15:36
(UTC-05:00)

Meteor 2-17 Rocket - Pass Details

Date: 06 May 2026
Orbit: 935 x 956 km, 82.5° (Epoch: 13 May)

Event Time Altitude Azimuth Distance (km) Brightness Sun altitude
Rises 21:55:02 0° 354° (N) 3,613 8.1 -20.5°
Reaches altitude 10° 21:57:32 10° 355° (N) 2,663 7.3 -20.9°
Maximum altitude 22:03:38 85° 85° (E) 946 4.3 -22.0°
Enters shadow 22:06:26 34° 171° (S) 1,488 5.1 -22.5°
